• In Uzbekistan
  • List of Countries
  • For 7 days
  • Water Temperature
  • Satellite Maps
  • Weather Map
  • Weather Widgets
  • user-avatar
    Login

    Hourly Weather Kisangani

    Today, 11 December, Monday

    Time Temperature Precipitation Wind Pressure Humidity
    00:00 +24°C° 0 mm 1 mps 717 mmHg 90%
    01:00 +24°C° 0 mm 1 mps 717 mmHg 91%
    02:00 +23°C° 0 mm 1 mps 717 mmHg 92%
    03:00 +23°C° 0 mm 1 mps 717 mmHg 92%
    04:00 +23°C° 0 mm 1 mps 717 mmHg 93%
    05:00 +23°C° 0 mm 1 mps 717 mmHg 93%
    06:00 +24°C° 0 mm 1 mps 718 mmHg 90%
    07:00 +25°C° 0 mm 1 mps 718 mmHg 86%
    08:00 +26°C° 0 mm 1 mps 719 mmHg 80%
    09:00 +28°C° 0 mm 1 mps 719 mmHg 71%
    10:00 +30°C° 0 mm 2 mps 719 mmHg 63%
    11:00 +32°C° 0 mm 2 mps 719 mmHg 55%
    12:00 +33°C° 0 mm 1 mps 718 mmHg 51%
    13:00 +34°C° 0 mm 1 mps 718 mmHg 46%
    14:00 +36°C° 0 mm 1 mps 717 mmHg 42%
    15:00 +32°C° 0 mm 0 mps 717 mmHg 47%
    16:00 +31°C° 0 mm 0 mps 716 mmHg 51%
    17:00 +30°C° 0 mm 0 mps 716 mmHg 55%
    18:00 +29°C° 0 mm 0 mps 716 mmHg 60%
    19:00 +27°C° 0 mm 0 mps 716 mmHg 65%
    20:00 +25°C° 0 mm 0 mps 717 mmHg 70%
    21:00 +25°C° 0 mm 0 mps 717 mmHg 72%
    22:00 +26°C° 0 mm 1 mps 717 mmHg 73%
    23:00 +26°C° 0 mm 1 mps 717 mmHg 75%

    Tomorrow, 12 December, Tuesday

    Time Temperature Precipitation Wind Pressure Humidity
    00:00 +26°C° 0 mm 1 mps 717 mmHg 78%
    01:00 +25°C° 0 mm 1 mps 716 mmHg 81%
    02:00 +25°C° 0 mm 1 mps 716 mmHg 83%
    03:00 +24°C° 0 mm 1 mps 716 mmHg 85%
    04:00 +24°C° 0 mm 1 mps 716 mmHg 87%
    05:00 +23°C° 0 mm 1 mps 716 mmHg 89%
    06:00 +25°C° 0 mm 1 mps 717 mmHg 85%
    07:00 +26°C° 0 mm 1 mps 717 mmHg 80%
    08:00 +27°C° 0 mm 1 mps 718 mmHg 75%
    09:00 +30°C° 0 mm 1 mps 718 mmHg 65%
    10:00 +33°C° 0 mm 1 mps 718 mmHg 55%
    11:00 +36°C° 0 mm 1 mps 719 mmHg 45%
    12:00 +36°C° 0 mm 1 mps 718 mmHg 41%
    13:00 +37°C° 0 mm 1 mps 717 mmHg 38%
    14:00 +39°C° 0 mm 1 mps 716 mmHg 35%
    15:00 +36°C° 0 mm 1 mps 716 mmHg 39%
    16:00 +33°C° 0 mm 0 mps 715 mmHg 43%
    17:00 +32°C° 0 mm 0 mps 715 mmHg 47%
    18:00 +30°C° 0 mm 0 mps 715 mmHg 52%
    19:00 +28°C° 0 mm 0 mps 715 mmHg 56%
    20:00 +26°C° 0 mm 0 mps 716 mmHg 60%
    21:00 +26°C° 0 mm 0 mps 716 mmHg 62%
    22:00 +25°C° 0 mm 0 mps 716 mmHg 63%
    23:00 +25°C° 0 mm 0 mps 716 mmHg 65%

    Day after tomorrow, 13 December, Wednesday

    Time Temperature Precipitation Wind Pressure Humidity
    00:00 +24°C° 0 mm 0 mps 716 mmHg 67%
    01:00 +24°C° 0 mm 0 mps 716 mmHg 70%
    02:00 +23°C° 0 mm 0 mps 715 mmHg 72%
    03:00 +25°C° 0 mm 1 mps 715 mmHg 74%
    04:00 +25°C° 0 mm 1 mps 715 mmHg 75%
    05:00 +24°C° 0 mm 1 mps 716 mmHg 77%
    06:00 +25°C° 0 mm 1 mps 716 mmHg 74%
    07:00 +26°C° 0 mm 1 mps 717 mmHg 71%
    08:00 +27°C° 0 mm 1 mps 718 mmHg 68%
    09:00 +30°C° 0 mm 1 mps 718 mmHg 60%
    10:00 +33°C° 0 mm 1 mps 718 mmHg 51%
    11:00 +36°C° 0 mm 1 mps 719 mmHg 43%
    12:00 +37°C° 0 mm 1 mps 718 mmHg 39%
    13:00 +36°C° 0 mm 0 mps 717 mmHg 34%
    14:00 +37°C° 0 mm 0 mps 716 mmHg 30%
    15:00 +36°C° 0 mm 0 mps 715 mmHg 33%
    16:00 +35°C° 0 mm 0 mps 715 mmHg 37%
    17:00 +34°C° 0 mm 0 mps 714 mmHg 40%
    18:00 +32°C° 0 mm 0 mps 714 mmHg 44%
    19:00 +29°C° 0 mm 0 mps 715 mmHg 48%
    20:00 +27°C° 0 mm 0 mps 715 mmHg 53%
    21:00 +27°C° 0 mm 0 mps 715 mmHg 54%
    22:00 +26°C° 0 mm 0 mps 716 mmHg 56%
    23:00 +25°C° 0 mm 0 mps 716 mmHg 58%

    14 December, Thursday

    Time Temperature Precipitation Wind Pressure Humidity
    00:00 +27°C° 0 mm 1 mps 716 mmHg 59%
    01:00 +26°C° 0 mm 1 mps 715 mmHg 61%
    02:00 +26°C° 0 mm 1 mps 715 mmHg 63%
    03:00 +25°C° 0 mm 1 mps 715 mmHg 66%
    04:00 +25°C° 0 mm 1 mps 715 mmHg 68%
    05:00 +24°C° 0 mm 1 mps 716 mmHg 71%
    06:00 +25°C° 0 mm 1 mps 717 mmHg 69%
    07:00 +26°C° 0 mm 1 mps 717 mmHg 68%
    08:00 +27°C° 0 mm 1 mps 718 mmHg 66%
    09:00 +30°C° 0 mm 1 mps 719 mmHg 60%
    10:00 +32°C° 0 mm 1 mps 719 mmHg 53%
    11:00 +34°C° 0 mm 1 mps 719 mmHg 47%
    12:00 +36°C° 0 mm 1 mps 718 mmHg 42%
    13:00 +37°C° 0 mm 1 mps 717 mmHg 38%
    14:00 +39°C° 0 mm 1 mps 716 mmHg 34%
    15:00 +37°C° 0 mm 1 mps 716 mmHg 38%
    16:00 +35°C° 0 mm 1 mps 715 mmHg 42%
    17:00 +32°C° 0 mm 0 mps 715 mmHg 46%
    18:00 +30°C° 0 mm 0 mps 715 mmHg 49%
    19:00 +29°C° 0 mm 0 mps 715 mmHg 52%
    20:00 +27°C° 0 mm 0 mps 716 mmHg 55%
    21:00 +27°C° 0 mm 0 mps 716 mmHg 58%
    22:00 +28°C° 0 mm 1 mps 716 mmHg 60%
    23:00 +27°C° 0 mm 1 mps 716 mmHg 62%

    15 December, Friday

    Time Temperature Precipitation Wind Pressure Humidity
    00:00 +27°C° 0 mm 1 mps 716 mmHg 67%
    01:00 +26°C° 0 mm 1 mps 715 mmHg 72%
    02:00 +26°C° 0 mm 1 mps 715 mmHg 78%
    03:00 +25°C° 0 mm 1 mps 715 mmHg 81%
    04:00 +25°C° 0 mm 1 mps 716 mmHg 83%
    05:00 +24°C° 0 mm 1 mps 716 mmHg 86%
    06:00 +25°C° 0 mm 1 mps 717 mmHg 82%
    07:00 +26°C° 0 mm 1 mps 718 mmHg 78%
    08:00 +27°C° 0 mm 1 mps 719 mmHg 74%
    09:00 +29°C° 0 mm 1 mps 719 mmHg 66%
    10:00 +32°C° 0 mm 1 mps 719 mmHg 58%
    11:00 +34°C° 0 mm 1 mps 719 mmHg 50%
    12:00 +34°C° 0 mm 1 mps 718 mmHg 48%
    13:00 +35°C° 0 mm 1 mps 717 mmHg 47%
    14:00 +35°C° 0 mm 1 mps 716 mmHg 45%
    15:00 +34°C° 0 mm 1 mps 716 mmHg 49%
    16:00 +32°C° 0 mm 0 mps 716 mmHg 52%
    17:00 +31°C° 0 mm 0 mps 716 mmHg 55%
    18:00 +29°C° 0 mm 0 mps 716 mmHg 60%
    19:00 +28°C° 0 mm 0 mps 716 mmHg 65%
    20:00 +26°C° 0 mm 0 mps 716 mmHg 70%
    21:00 +26°C° 0 mm 0 mps 716 mmHg 71%
    22:00 +25°C° 0 mm 0 mps 717 mmHg 72%
    23:00 +27°C° 0 mm 1 mps 717 mmHg 73%

    16 December, Saturday

    Time Temperature Precipitation Wind Pressure Humidity
    00:00 +24°C° 0 mm 0 mps 716 mmHg 74%
    01:00 +24°C° 0 mm 0 mps 716 mmHg 75%
    02:00 +24°C° 0 mm 0 mps 715 mmHg 75%
    03:00 +25°C° 0 mm 1 mps 716 mmHg 78%
    04:00 +25°C° 0 mm 1 mps 716 mmHg 80%
    05:00 +24°C° 0 mm 1 mps 716 mmHg 83%
    06:00 +25°C° 0 mm 1 mps 717 mmHg 80%
    07:00 +26°C° 0 mm 1 mps 717 mmHg 78%
    08:00 +27°C° 0 mm 1 mps 718 mmHg 75%
    09:00 +29°C° 0 mm 1 mps 718 mmHg 66%
    10:00 +32°C° 0 mm 1 mps 718 mmHg 57%
    11:00 +34°C° 0 mm 1 mps 718 mmHg 48%
    12:00 +36°C° 0 mm 1 mps 717 mmHg 43%
    13:00 +35°C° 0 mm 0 mps 717 mmHg 38%
    14:00 +37°C° 0 mm 0 mps 716 mmHg 33%
    15:00 +36°C° 0 mm 0 mps 715 mmHg 36%
    16:00 +34°C° 0 mm 0 mps 715 mmHg 40%
    17:00 +33°C° 0 mm 0 mps 715 mmHg 43%
    18:00 +31°C° 0 mm 0 mps 715 mmHg 48%
    19:00 +29°C° 0 mm 0 mps 716 mmHg 53%
    20:00 +27°C° 0 mm 0 mps 716 mmHg 58%
    21:00 +27°C° 0 mm 0 mps 716 mmHg 59%
    22:00 +26°C° 0 mm 0 mps 716 mmHg 61%
    23:00 +28°C° 0 mm 1 mps 716 mmHg 62%
    Show more